Location: Newark
(38.7000°N, 9.1833°W)
Time: 13:11:22
(UTC+00:00)

Envisat - Pass Details

Date: 01 November 2019
Orbit: 764 x 766 km, 98.1° (Epoch: 12 November)

Event Time Altitude Azimuth Distance (km) Brightness Sun altitude
Rises 18:21:58 0° 156° (SSE) 3,217 6.1 -9.3°
Reaches altitude 10° 18:24:17 10° 153° (SSE) 2,295 5.3 -9.8°
Maximum altitude 18:29:16 61° 74° (ENE) 866 3.0 -10.7°
Drops below altitude 10° 18:34:16 10° 355° (N) 2,309 5.4 -11.7°
Sets 18:36:36 0° 352° (N) 3,239 6.2 -12.1°
